UAL150 RJBB-PGUM

Flight info

Callsign UAL150
Flight time 3h 15m
Altitude 37000
Route TOMOH DOPDA KEC Y47 BUBDO A597 REEDE
Aircraft B738/M-SDE2E3FGHIRWXY/LB1

Departure

Time 2026-04-28 02:14
Airport Kansai International Airport (RJBB)

Arrival

Time 2026-04-28 05:29
Airport Antonio B. Won Pat International Airport (PGUM)
Time Latitude Longitude Altitude Speed Heading
2026-04-28 01:02 34.43347 135.24490 22 ft 0 kts 321°
2026-04-28 02:01 34.43344 135.24493 22 ft 2 kts 320°
2026-04-28 02:01 34.43332 135.24506 25 ft 2 kts 316°
2026-04-28 02:01 34.43320 135.24520 26 ft 2 kts 311°
2026-04-28 02:02 34.43310 135.24536 25 ft 2 kts 303°
2026-04-28 02:02 34.43302 135.24553 23 ft 2 kts 289°
2026-04-28 02:02 34.43299 135.24573 23 ft 2 kts 265°
2026-04-28 02:02 34.43303 135.24592 23 ft 2 kts 238°
2026-04-28 02:03 34.43308 135.24600 23 ft 0 kts 231°
2026-04-28 02:07 34.43306 135.24597 23 ft 2 kts 231°
2026-04-28 02:07 34.43282 135.24559 24 ft 9 kts 232°
2026-04-28 02:07 34.43231 135.24484 22 ft 14 kts 231°
2026-04-28 02:07 34.43155 135.24426 22 ft 13 kts 180°
2026-04-28 02:08 34.43073 135.24388 23 ft 13 kts 225°
2026-04-28 02:08 34.43014 135.24302 23 ft 14 kts 230°
2026-04-28 02:08 34.42949 135.24204 22 ft 16 kts 231°
2026-04-28 02:08 34.42877 135.24095 22 ft 17 kts 231°
2026-04-28 02:09 34.42801 135.23983 22 ft 18 kts 231°
2026-04-28 02:09 34.42718 135.23857 22 ft 20 kts 231°
2026-04-28 02:09 34.42625 135.23720 22 ft 22 kts 231°
2026-04-28 02:09 34.42531 135.23579 22 ft 21 kts 231°
2026-04-28 02:10 34.42440 135.23444 22 ft 21 kts 230°
2026-04-28 02:10 34.42350 135.23310 23 ft 20 kts 230°
2026-04-28 02:10 34.42264 135.23185 22 ft 19 kts 231°
2026-04-28 02:10 34.42180 135.23061 22 ft 19 kts 230°
2026-04-28 02:11 34.42099 135.22941 23 ft 18 kts 230°
2026-04-28 02:11 34.42020 135.22826 22 ft 17 kts 230°
2026-04-28 02:11 34.41929 135.22764 22 ft 16 kts 162°
2026-04-28 02:11 34.41843 135.22839 22 ft 12 kts 141°
2026-04-28 02:12 34.41833 135.22849 23 ft 0 kts 141°
2026-04-28 02:13 34.41806 135.22876 23 ft 10 kts 140°
2026-04-28 02:13 34.41775 135.22974 21 ft 15 kts 71°
2026-04-28 02:14 34.41883 135.23145 23 ft 57 kts 50°
2026-04-28 02:14 34.42315 135.23785 21 ft 135 kts 51°
2026-04-28 02:14 34.43010 135.24836 214 ft 184 kts 51°
2026-04-28 02:14 34.43849 135.26098 986 ft 205 kts 52°
2026-04-28 02:15 34.46502 135.28088 2293 ft 248 kts
2026-04-28 02:15 34.48125 135.27674 2971 ft 239 kts 322°
2026-04-28 02:15 34.49104 135.26210 3692 ft 217 kts 280°
2026-04-28 02:16 34.49119 135.24484 4461 ft 199 kts 263°
2026-04-28 02:16 34.49365 135.22817 5098 ft 203 kts 281°
2026-04-28 02:16 34.49341 135.21181 5667 ft 192 kts 240°
2026-04-28 02:16 34.48605 135.19879 6311 ft 187 kts 235°
2026-04-28 02:17 34.47873 135.18552 6716 ft 195 kts 237°
2026-04-28 02:17 34.47112 135.17137 6967 ft 210 kts 237°
2026-04-28 02:17 34.46296 135.15595 7222 ft 226 kts 238°
2026-04-28 02:17 34.45426 135.13921 7484 ft 244 kts 238°
2026-04-28 02:18 34.44522 135.12160 8162 ft 246 kts 238°
2026-04-28 02:18 34.43618 135.10388 8922 ft 248 kts 239°
2026-04-28 02:18 34.42711 135.08604 9707 ft 249 kts 239°
2026-04-28 02:18 34.41800 135.06819 10429 ft 250 kts 238°
2026-04-28 02:19 34.40559 135.05346 11138 ft 254 kts 216°
2026-04-28 02:19 34.38950 135.04420 11884 ft 259 kts 204°
2026-04-28 02:19 34.37207 135.03798 12599 ft 262 kts 202°
2026-04-28 02:19 34.35415 135.03201 13085 ft 271 kts 202°
2026-04-28 02:20 34.33600 135.02581 13625 ft 278 kts 203°
2026-04-28 02:20 34.31716 135.01919 14123 ft 285 kts 203°
2026-04-28 02:20 34.29791 135.01236 14608 ft 292 kts 203°
2026-04-28 02:20 34.27747 135.00765 15075 ft 311 kts 186°
2026-04-28 02:21 34.25549 135.01160 15598 ft 326 kts 175°
2026-04-28 02:21 34.23309 135.01769 16095 ft 333 kts 175°
2026-04-28 02:21 34.21028 135.02417 16604 ft 339 kts 175°
2026-04-28 02:21 34.18707 135.03076 17116 ft 345 kts 175°
2026-04-28 02:22 34.16351 135.03737 17638 ft 350 kts 175°
2026-04-28 02:22 34.13963 135.04397 18162 ft 355 kts 176°
2026-04-28 02:22 34.11534 135.05062 18639 ft 359 kts 176°
2026-04-28 02:22 34.09110 135.05722 19096 ft 363 kts 176°
2026-04-28 02:23 34.06634 135.06394 19566 ft 367 kts 176°
2026-04-28 02:23 34.04126 135.07074 20047 ft 371 kts 177°
2026-04-28 02:23 34.01604 135.07757 20492 ft 374 kts 177°
2026-04-28 02:23 33.99055 135.08446 20984 ft 376 kts 177°
2026-04-28 02:24 33.96494 135.09138 21486 ft 379 kts 178°
2026-04-28 02:24 33.93912 135.09835 21986 ft 381 kts 178°
2026-04-28 02:24 33.91363 135.10946 22464 ft 405 kts 159°
2026-04-28 02:24 33.89148 135.13169 22994 ft 428 kts 139°
2026-04-28 02:25 33.87249 135.15955 23561 ft 431 kts 137°
2026-04-28 02:25 33.85390 135.18804 23982 ft 433 kts 136°
2026-04-28 02:25 33.83542 135.21664 24438 ft 433 kts 136°
2026-04-28 02:25 33.81692 135.24515 25009 ft 429 kts 136°
2026-04-28 02:26 33.79853 135.27324 25566 ft 425 kts 137°
2026-04-28 02:26 33.78044 135.30066 26110 ft 422 kts 137°
2026-04-28 02:26 33.76206 135.32821 26517 ft 424 kts 137°
2026-04-28 02:26 33.74347 135.35589 26905 ft 426 kts 137°
2026-04-28 02:27 33.72478 135.38366 27203 ft 431 kts 137°
2026-04-28 02:27 33.70577 135.41190 27459 ft 436 kts 137°
2026-04-28 02:27 33.68655 135.44047 27721 ft 441 kts 137°
2026-04-28 02:27 33.66719 135.46928 27991 ft 445 kts 137°
2026-04-28 02:28 33.64754 135.49840 28229 ft 450 kts 137°
2026-04-28 02:28 33.62783 135.52774 28505 ft 454 kts 136°
2026-04-28 02:28 33.60814 135.55704 28762 ft 458 kts 136°
2026-04-28 02:28 33.58804 135.58695 29030 ft 462 kts 136°
2026-04-28 02:29 33.56770 135.61713 29305 ft 466 kts 136°
2026-04-28 02:29 33.54723 135.64745 29574 ft 469 kts 136°
2026-04-28 02:29 33.52661 135.67793 29822 ft 472 kts 136°
2026-04-28 02:29 33.50581 135.70866 30095 ft 475 kts 136°
2026-04-28 02:30 33.48496 135.73954 30327 ft 477 kts 136°
2026-04-28 02:30 33.46393 135.77042 30555 ft 478 kts 139°
2026-04-28 02:30 33.43979 135.79602 30752 ft 461 kts 157°
2026-04-28 02:30 33.41162 135.81220 31000 ft 444 kts 170°
2026-04-28 02:31 33.38245 135.82443 31209 ft 445 kts 171°
2026-04-28 02:31 33.32287 135.84896 31407 ft 456 kts 169°
2026-04-28 02:31 33.29294 135.86180 31653 ft 458 kts 169°
2026-04-28 02:32 33.26288 135.87489 31896 ft 460 kts 169°
2026-04-28 02:32 33.23276 135.88804 32109 ft 461 kts 169°
2026-04-28 02:32 33.20264 135.90116 32356 ft 462 kts 169°
2026-04-28 02:32 33.17242 135.91429 32603 ft 462 kts 169°
2026-04-28 02:33 33.14222 135.92739 32848 ft 463 kts 169°
2026-04-28 02:33 33.11188 135.94053 33105 ft 463 kts 169°
2026-04-28 02:33 33.08157 135.95365 33349 ft 463 kts 169°
2026-04-28 02:33 33.05121 135.96679 33604 ft 464 kts 169°
2026-04-28 02:34 33.02091 135.97988 33872 ft 463 kts 169°
2026-04-28 02:34 32.99063 135.99296 34117 ft 463 kts 169°
2026-04-28 02:34 32.96029 136.00606 34348 ft 463 kts 169°
2026-04-28 02:34 32.93006 136.01912 34677 ft 459 kts 169°
2026-04-28 02:35 32.90014 136.03205 35003 ft 455 kts 169°
2026-04-28 02:35 32.87080 136.04471 35346 ft 450 kts 169°
2026-04-28 02:35 32.84156 136.05731 35701 ft 445 kts 169°
2026-04-28 02:35 32.81262 136.06975 35999 ft 441 kts 169°
2026-04-28 02:36 32.78377 136.08212 36229 ft 438 kts 169°
2026-04-28 02:36 32.75514 136.09439 36448 ft 435 kts 169°
2026-04-28 02:36 32.72666 136.10659 36520 ft 438 kts 169°
2026-04-28 02:37 32.66886 136.13134 36519 ft 444 kts 169°
2026-04-28 02:37 32.61056 136.15636 36553 ft 451 kts 169°
2026-04-28 02:38 32.55120 136.18183 36770 ft 451 kts 169°
2026-04-28 02:38 32.52175 136.19451 37011 ft 449 kts 169°
2026-04-28 02:38 32.49229 136.20714 37005 ft 452 kts 169°
2026-04-28 02:39 32.43276 136.23254 36995 ft 458 kts 169°
2026-04-28 02:39 32.37296 136.25808 37023 ft 463 kts 169°
2026-04-28 02:40 32.31203 136.28404 37036 ft 468 kts 169°
2026-04-28 02:40 32.25052 136.31014 37037 ft 472 kts 168°
2026-04-28 02:41 32.19897 136.33198 37033 ft 474 kts 168°
2026-04-28 02:41 32.13677 136.35834 37014 ft 471 kts 168°
2026-04-28 02:42 32.07564 136.38421 37015 ft 461 kts 169°
2026-04-28 02:42 32.01542 136.40966 37025 ft 458 kts 169°
2026-04-28 02:43 31.95579 136.43479 37038 ft 456 kts 169°
2026-04-28 02:43 31.89568 136.46001 37048 ft 461 kts 169°
2026-04-28 02:44 31.83501 136.48548 37036 ft 465 kts 169°
2026-04-28 02:44 31.77370 136.51122 37043 ft 468 kts 169°
2026-04-28 02:45 31.71247 136.53694 37026 ft 464 kts 169°
2026-04-28 02:45 31.65220 136.56223 37030 ft 456 kts 169°
2026-04-28 02:46 31.59281 136.58699 37018 ft 455 kts 169°
2026-04-28 02:46 31.53321 136.61186 37037 ft 454 kts 169°
2026-04-28 02:47 31.47369 136.63666 37046 ft 453 kts 169°
2026-04-28 02:47 31.41425 136.66140 37031 ft 453 kts 168°
2026-04-28 02:48 31.35484 136.68612 37045 ft 453 kts 168°
2026-04-28 02:48 31.29584 136.71062 37048 ft 453 kts 168°
2026-04-28 02:49 31.23605 136.73541 37023 ft 453 kts 168°
2026-04-28 02:49 31.17699 136.75987 37040 ft 453 kts 168°
2026-04-28 02:50 31.11745 136.78442 37058 ft 453 kts 168°
2026-04-28 02:50 31.05796 136.80901 37027 ft 454 kts 168°
2026-04-28 02:51 30.99842 136.83362 37041 ft 453 kts 168°
2026-04-28 02:51 30.93893 136.85813 37053 ft 453 kts 168°
2026-04-28 02:52 30.87935 136.88263 37038 ft 453 kts 167°
2026-04-28 02:52 30.82021 136.90693 37054 ft 453 kts 167°
2026-04-28 02:53 30.76069 136.93134 37056 ft 453 kts 167°
2026-04-28 02:53 30.70123 136.95571 37035 ft 453 kts 167°
2026-04-28 02:54 30.64170 136.98006 37064 ft 454 kts 167°
2026-04-28 02:54 30.58202 137.00445 37058 ft 455 kts 167°
2026-04-28 02:55 30.52263 137.02869 37061 ft 455 kts 167°
2026-04-28 02:55 30.46268 137.05312 37058 ft 456 kts 167°
2026-04-28 02:56 30.40265 137.07756 37064 ft 457 kts 167°
2026-04-28 02:56 30.34258 137.10198 37060 ft 458 kts 167°
2026-04-28 02:57 30.28267 137.12630 37056 ft 458 kts 167°
2026-04-28 02:57 30.22245 137.15071 37063 ft 459 kts 167°
2026-04-28 02:58 30.16212 137.17514 37051 ft 459 kts 167°
2026-04-28 02:58 30.10173 137.19956 37063 ft 459 kts 167°
2026-04-28 02:59 30.04140 137.22393 37062 ft 459 kts 168°
2026-04-28 02:59 29.98147 137.24811 37052 ft 459 kts 168°
2026-04-28 03:00 29.92125 137.27239 37057 ft 458 kts 167°
2026-04-28 03:00 29.86095 137.29668 37067 ft 458 kts 168°
2026-04-28 03:01 29.80087 137.32083 37053 ft 457 kts 167°
2026-04-28 03:01 29.74115 137.34481 37063 ft 457 kts 167°
2026-04-28 03:02 29.68108 137.36890 37065 ft 457 kts 168°
2026-04-28 03:02 29.62108 137.39292 37050 ft 456 kts 168°
2026-04-28 03:03 29.56115 137.41689 37057 ft 456 kts 168°
2026-04-28 03:03 29.50118 137.44085 37067 ft 456 kts 168°
2026-04-28 03:04 29.44161 137.46461 37055 ft 456 kts 168°
2026-04-28 03:04 29.38174 137.48847 37069 ft 455 kts 168°
2026-04-28 03:05 29.32184 137.51230 37067 ft 456 kts 168°
2026-04-28 03:05 29.26190 137.53612 37055 ft 456 kts 168°
2026-04-28 03:06 29.20183 137.55998 37070 ft 456 kts 168°
2026-04-28 03:06 29.14221 137.58361 37072 ft 456 kts 168°
2026-04-28 03:07 29.08186 137.60750 37047 ft 456 kts 168°
2026-04-28 03:07 29.02224 137.63109 37064 ft 456 kts 168°
2026-04-28 03:08 28.96225 137.65479 37075 ft 456 kts 168°
2026-04-28 03:08 28.90225 137.67846 37073 ft 456 kts 168°
2026-04-28 03:09 28.84229 137.70209 37074 ft 455 kts 168°
2026-04-28 03:09 28.78265 137.72557 37072 ft 455 kts 168°
2026-04-28 03:10 28.72285 137.74908 37070 ft 454 kts 168°
2026-04-28 03:10 28.66295 137.77259 37075 ft 454 kts 168°
2026-04-28 03:11 28.60356 137.79588 37075 ft 454 kts 168°
2026-04-28 03:11 28.54377 137.81929 37081 ft 453 kts 168°
2026-04-28 03:12 28.48412 137.84263 37069 ft 452 kts 168°
2026-04-28 03:12 28.42465 137.86588 37071 ft 451 kts 168°
2026-04-28 03:13 28.36526 137.88905 37073 ft 451 kts 168°
2026-04-28 03:13 28.30598 137.91216 37063 ft 450 kts 167°
2026-04-28 03:14 28.24723 137.93504 37072 ft 449 kts 167°
2026-04-28 03:14 28.18811 137.95803 37077 ft 448 kts 167°
2026-04-28 03:15 28.12911 137.98094 37061 ft 448 kts 167°
2026-04-28 03:15 28.07012 138.00383 37073 ft 447 kts 167°
2026-04-28 03:16 28.01126 138.02664 37074 ft 447 kts 167°
2026-04-28 03:16 27.95271 138.04930 37074 ft 447 kts 167°
2026-04-28 03:17 27.89390 138.07204 37072 ft 447 kts 167°
2026-04-28 03:17 27.80558 138.10614 37074 ft 447 kts 167°
2026-04-28 03:18 27.74659 138.12888 37057 ft 447 kts 167°
2026-04-28 03:18 27.68773 138.15155 37071 ft 447 kts 166°
2026-04-28 03:19 27.62915 138.17408 37073 ft 447 kts 166°
2026-04-28 03:19 27.57014 138.19675 37074 ft 448 kts 166°
2026-04-28 03:20 27.51108 138.21943 37062 ft 448 kts 166°
2026-04-28 03:20 27.45192 138.24210 37076 ft 448 kts 166°
2026-04-28 03:21 27.39316 138.26459 37071 ft 449 kts 166°
2026-04-28 03:21 27.33391 138.28725 37058 ft 450 kts 166°
2026-04-28 03:22 27.27453 138.30994 37073 ft 450 kts 166°
2026-04-28 03:22 27.21516 138.33260 37072 ft 451 kts 166°
2026-04-28 03:23 27.15567 138.35528 37067 ft 451 kts 166°
2026-04-28 03:23 27.09644 138.37783 37070 ft 452 kts 166°
2026-04-28 03:24 27.03687 138.40049 37084 ft 452 kts 167°
2026-04-28 03:24 26.97727 138.42314 37075 ft 452 kts 166°
2026-04-28 03:25 26.91774 138.44573 37068 ft 451 kts 166°
2026-04-28 03:25 26.85823 138.46829 37069 ft 451 kts 167°
2026-04-28 03:26 26.79919 138.49064 37073 ft 450 kts 167°
2026-04-28 03:26 26.73983 138.51310 37078 ft 450 kts 166°
2026-04-28 03:27 26.68045 138.53553 37070 ft 449 kts 167°
2026-04-28 03:27 26.62129 138.55785 37075 ft 449 kts 167°
2026-04-28 03:28 26.56248 138.58002 37067 ft 448 kts 166°
2026-04-28 03:28 26.51328 138.59855 37069 ft 448 kts 167°
2026-04-28 03:29 26.45424 138.62076 37071 ft 447 kts 167°
2026-04-28 03:29 26.39518 138.64296 37071 ft 447 kts 167°
2026-04-28 03:30 26.33620 138.66509 37060 ft 447 kts 167°
2026-04-28 03:30 26.27719 138.68723 37073 ft 447 kts 167°
2026-04-28 03:31 26.21847 138.70922 37069 ft 448 kts 167°
2026-04-28 03:31 26.15929 138.73137 37071 ft 448 kts 167°
2026-04-28 03:32 26.10011 138.75348 37067 ft 448 kts 167°
2026-04-28 03:32 26.04083 138.77562 37069 ft 449 kts 167°
2026-04-28 03:33 25.98185 138.79762 37067 ft 450 kts 167°
2026-04-28 03:33 25.92241 138.81977 37058 ft 450 kts 167°
2026-04-28 03:34 25.86296 138.84190 37066 ft 450 kts 167°
2026-04-28 03:34 25.80350 138.86401 37065 ft 451 kts 167°
2026-04-28 03:35 25.74394 138.88613 37066 ft 451 kts 167°
2026-04-28 03:35 25.68437 138.90823 37059 ft 451 kts 167°
2026-04-28 03:36 25.62480 138.93031 37071 ft 451 kts 167°
2026-04-28 03:36 25.56555 138.95225 37066 ft 452 kts 167°
2026-04-28 03:37 25.50590 138.97431 37061 ft 452 kts 167°
2026-04-28 03:37 25.44624 138.99636 37062 ft 452 kts 167°
2026-04-28 03:38 25.38651 139.01840 37058 ft 452 kts 167°
2026-04-28 03:38 25.32682 139.04040 37064 ft 452 kts 167°
2026-04-28 03:39 25.26744 139.06227 37068 ft 452 kts 167°
2026-04-28 03:39 25.20773 139.08424 37065 ft 452 kts 167°
2026-04-28 03:40 25.14801 139.10619 37066 ft 452 kts 167°
2026-04-28 03:40 25.08825 139.12812 37053 ft 452 kts 167°
2026-04-28 03:41 25.02846 139.15005 37064 ft 453 kts 167°
2026-04-28 03:41 24.96873 139.17203 37064 ft 453 kts 167°
2026-04-28 03:42 24.90888 139.19428 37063 ft 453 kts 166°
2026-04-28 03:42 24.84939 139.21641 37063 ft 454 kts 166°
2026-04-28 03:43 24.78954 139.23861 37061 ft 454 kts 167°
2026-04-28 03:43 24.72958 139.26080 37065 ft 454 kts 167°
2026-04-28 03:44 24.66962 139.28297 37062 ft 454 kts 167°
2026-04-28 03:44 24.60968 139.30511 37061 ft 454 kts 167°
2026-04-28 03:45 24.55003 139.32712 37061 ft 454 kts 167°
2026-04-28 03:45 24.49000 139.34925 37058 ft 454 kts 167°
2026-04-28 03:46 24.42998 139.37135 37050 ft 454 kts 167°
2026-04-28 03:46 24.37007 139.39339 37055 ft 454 kts 167°
2026-04-28 03:47 24.31050 139.41528 37059 ft 454 kts 167°
2026-04-28 03:47 24.25060 139.43728 37050 ft 454 kts 166°
2026-04-28 03:48 24.19067 139.45926 37057 ft 454 kts 167°
2026-04-28 03:48 24.13068 139.48123 37054 ft 454 kts 166°
2026-04-28 03:49 24.07083 139.50314 37055 ft 454 kts 167°
2026-04-28 03:49 24.01116 139.52496 37054 ft 454 kts 166°
2026-04-28 03:50 23.95128 139.54683 37057 ft 453 kts 166°
2026-04-28 03:50 23.89137 139.56871 37058 ft 453 kts 166°
2026-04-28 03:51 23.83149 139.59054 37057 ft 453 kts 166°
2026-04-28 03:51 23.77165 139.61233 37059 ft 453 kts 166°
2026-04-28 03:52 23.71178 139.63412 37057 ft 453 kts 166°
2026-04-28 03:52 23.65225 139.65577 37056 ft 453 kts 166°
2026-04-28 03:53 23.59239 139.67751 37049 ft 452 kts 166°
2026-04-28 03:53 23.53258 139.69922 37057 ft 452 kts 166°
2026-04-28 03:54 23.47333 139.72070 37054 ft 451 kts 166°
2026-04-28 03:54 23.41369 139.74229 37054 ft 451 kts 166°
2026-04-28 03:55 23.35400 139.76388 37048 ft 451 kts 166°
2026-04-28 03:55 23.29449 139.78531 37056 ft 450 kts 166°
2026-04-28 03:56 23.23533 139.80666 37055 ft 450 kts 166°
2026-04-28 03:56 23.17551 139.82824 37054 ft 450 kts 166°
2026-04-28 03:57 23.11640 139.84955 37049 ft 450 kts 166°
2026-04-28 03:57 23.05685 139.87100 37050 ft 451 kts 166°
2026-04-28 03:58 22.99718 139.89246 37051 ft 451 kts 166°
2026-04-28 03:58 22.93770 139.91384 37042 ft 452 kts 166°
2026-04-28 03:59 22.87803 139.93527 37050 ft 452 kts 166°
2026-04-28 03:59 22.81825 139.95672 37049 ft 453 kts 166°
2026-04-28 04:00 22.75835 139.97820 37049 ft 453 kts 166°
2026-04-28 04:00 22.69851 139.99963 37039 ft 453 kts 167°
2026-04-28 04:01 22.63866 140.02104 37047 ft 453 kts 167°
2026-04-28 04:01 22.57880 140.04244 37046 ft 453 kts 167°
2026-04-28 04:02 22.51921 140.06372 37044 ft 453 kts 167°
2026-04-28 04:02 22.45935 140.08508 37043 ft 453 kts 167°
2026-04-28 04:03 22.39950 140.10642 37044 ft 452 kts 167°
2026-04-28 04:03 22.33972 140.12771 37044 ft 452 kts 167°
2026-04-28 04:04 22.27987 140.14901 37044 ft 452 kts 167°
2026-04-28 04:04 22.22020 140.17023 37039 ft 452 kts 167°
2026-04-28 04:05 22.16047 140.19144 37042 ft 451 kts 167°
2026-04-28 04:05 22.10116 140.21249 37041 ft 451 kts 167°
2026-04-28 04:06 22.04147 140.23365 37038 ft 451 kts 167°
2026-04-28 04:06 21.98177 140.25480 37035 ft 451 kts 167°
2026-04-28 04:07 21.92217 140.27589 37035 ft 451 kts 167°
2026-04-28 04:07 21.86244 140.29701 37036 ft 451 kts 167°
2026-04-28 04:08 21.80308 140.31799 37025 ft 451 kts 167°
2026-04-28 04:08 21.74337 140.33907 37040 ft 451 kts 167°
2026-04-28 04:09 21.68368 140.36012 37031 ft 452 kts 167°
2026-04-28 04:09 21.62397 140.38116 37028 ft 452 kts 167°
2026-04-28 04:10 21.56412 140.40223 37018 ft 452 kts 167°
2026-04-28 04:10 21.50429 140.42328 37026 ft 452 kts 167°
2026-04-28 04:11 21.44480 140.44419 37031 ft 453 kts 167°
2026-04-28 04:11 21.38490 140.46523 37027 ft 453 kts 167°
2026-04-28 04:12 21.32494 140.48627 37024 ft 453 kts 166°
2026-04-28 04:12 21.26493 140.50731 37024 ft 453 kts 166°
2026-04-28 04:13 21.20493 140.52833 37027 ft 453 kts 166°
2026-04-28 04:13 21.14493 140.54933 37019 ft 454 kts 166°
2026-04-28 04:14 21.08505 140.57027 37006 ft 454 kts 166°
2026-04-28 04:14 21.02505 140.59124 37017 ft 454 kts 166°
2026-04-28 04:15 20.97623 140.61274 37023 ft 460 kts 156°
2026-04-28 04:16 20.89245 140.66362 37023 ft 462 kts 155°
2026-04-28 04:16 20.83660 140.69766 37013 ft 461 kts 155°
2026-04-28 04:17 20.78069 140.73131 37013 ft 461 kts 155°
2026-04-28 04:17 20.72494 140.76464 37010 ft 462 kts 155°
2026-04-28 04:18 20.66883 140.79812 37010 ft 462 kts 155°
2026-04-28 04:18 20.61258 140.83167 37009 ft 462 kts 155°
2026-04-28 04:19 20.55649 140.86510 37010 ft 462 kts 155°
2026-04-28 04:19 20.50054 140.89842 37009 ft 462 kts 155°
2026-04-28 04:20 20.44436 140.93186 37009 ft 462 kts 155°
2026-04-28 04:20 20.38809 140.96533 37007 ft 462 kts 155°
2026-04-28 04:21 20.33194 140.99868 37006 ft 462 kts 155°
2026-04-28 04:21 20.27568 141.03208 37006 ft 462 kts 155°
2026-04-28 04:22 20.21975 141.06525 37003 ft 463 kts 155°
2026-04-28 04:22 20.16339 141.09866 37003 ft 463 kts 155°
2026-04-28 04:23 20.10704 141.13202 37000 ft 463 kts 155°
2026-04-28 04:23 20.05077 141.16532 36999 ft 463 kts 155°
2026-04-28 04:24 19.99448 141.19859 37004 ft 463 kts 155°
2026-04-28 04:24 19.93854 141.23163 36991 ft 462 kts 154°
2026-04-28 04:25 19.88225 141.26486 36996 ft 462 kts 155°
2026-04-28 04:25 19.82604 141.29800 36998 ft 462 kts 155°
2026-04-28 04:26 19.76978 141.33115 36992 ft 462 kts 155°
2026-04-28 04:26 19.71374 141.36414 36988 ft 462 kts 154°
2026-04-28 04:27 19.65739 141.39729 36995 ft 462 kts 154°
2026-04-28 04:27 19.60105 141.43041 36995 ft 463 kts 154°
2026-04-28 04:28 19.54471 141.46350 36991 ft 463 kts 154°
2026-04-28 04:28 19.48861 141.49642 36990 ft 463 kts 154°
2026-04-28 04:29 19.43208 141.52957 36998 ft 464 kts 154°
2026-04-28 04:29 19.37562 141.56265 36994 ft 464 kts 154°
2026-04-28 04:30 19.31895 141.59582 36993 ft 464 kts 154°
2026-04-28 04:30 19.26237 141.62892 36986 ft 465 kts 154°
2026-04-28 04:31 19.20604 141.66185 36995 ft 465 kts 154°
2026-04-28 04:31 19.14928 141.69500 36984 ft 466 kts 154°
2026-04-28 04:32 19.09247 141.72815 36985 ft 466 kts 154°
2026-04-28 04:32 19.03565 141.76128 36979 ft 466 kts 154°
2026-04-28 04:33 18.97912 141.79422 36985 ft 466 kts 154°
2026-04-28 04:33 18.92214 141.82740 36990 ft 467 kts 154°
2026-04-28 04:34 18.86522 141.86051 36984 ft 467 kts 154°
2026-04-28 04:34 18.80829 141.89361 36980 ft 467 kts 154°
2026-04-28 04:35 18.75127 141.92672 36980 ft 467 kts 154°
2026-04-28 04:35 18.69424 141.95983 36983 ft 468 kts 154°
2026-04-28 04:36 18.63759 141.99268 36981 ft 468 kts 154°
2026-04-28 04:36 18.58062 142.02569 36974 ft 468 kts 154°
2026-04-28 04:37 18.52345 142.05879 36976 ft 468 kts 154°
2026-04-28 04:37 18.46627 142.09188 36976 ft 468 kts 154°
2026-04-28 04:38 18.40915 142.12491 36975 ft 469 kts 154°
2026-04-28 04:38 18.35190 142.15798 36973 ft 469 kts 154°
2026-04-28 04:39 18.29466 142.19102 36968 ft 469 kts 154°
2026-04-28 04:39 18.23762 142.22392 36971 ft 470 kts 154°
2026-04-28 04:40 18.18023 142.25700 36971 ft 470 kts 154°
2026-04-28 04:40 18.12290 142.29002 36970 ft 470 kts 154°
2026-04-28 04:41 18.06545 142.32309 36963 ft 470 kts 154°
2026-04-28 04:41 18.00799 142.35613 36969 ft 471 kts 154°
2026-04-28 04:42 17.95093 142.38893 36967 ft 471 kts 154°
2026-04-28 04:42 17.89335 142.42199 36965 ft 471 kts 154°
2026-04-28 04:43 17.83575 142.45504 36967 ft 471 kts 154°
2026-04-28 04:43 17.77815 142.48807 36961 ft 471 kts 154°
2026-04-28 04:44 17.72056 142.52107 36965 ft 471 kts 154°
2026-04-28 04:44 17.66308 142.55398 36964 ft 471 kts 154°
2026-04-28 04:45 17.60543 142.58696 36975 ft 471 kts 154°
2026-04-28 04:45 17.54790 142.61986 36964 ft 471 kts 154°
2026-04-28 04:46 17.49085 142.65245 36962 ft 470 kts 154°
2026-04-28 04:46 17.43319 142.68537 36959 ft 470 kts 154°
2026-04-28 04:47 17.37564 142.71820 36952 ft 469 kts 153°
2026-04-28 04:47 17.31853 142.75077 36954 ft 469 kts 154°
2026-04-28 04:48 17.26126 142.78340 36967 ft 469 kts 153°
2026-04-28 04:48 17.20392 142.81605 36961 ft 469 kts 153°
2026-04-28 04:49 17.14617 142.84756 36964 ft 468 kts 155°
2026-04-28 04:49 17.08814 142.87753 36956 ft 468 kts 156°
2026-04-28 04:50 17.02959 142.90776 36961 ft 468 kts 155°
2026-04-28 04:50 16.97116 142.93817 36959 ft 469 kts 155°
2026-04-28 04:51 16.91281 142.96867 36955 ft 469 kts 155°
2026-04-28 04:51 16.85428 142.99926 36952 ft 470 kts 155°
2026-04-28 04:52 16.79611 143.02964 36958 ft 470 kts 155°
2026-04-28 04:52 16.73754 143.06019 36956 ft 471 kts 155°
2026-04-28 04:53 16.67884 143.09079 36950 ft 471 kts 155°
2026-04-28 04:53 16.62011 143.12138 36949 ft 472 kts 155°
2026-04-28 04:54 16.56140 143.15195 36953 ft 472 kts 155°
2026-04-28 04:54 16.50298 143.18234 36948 ft 472 kts 155°
2026-04-28 04:55 16.44396 143.21302 36951 ft 472 kts 155°
2026-04-28 04:55 16.38513 143.24359 36948 ft 473 kts 155°
2026-04-28 04:56 16.32624 143.27416 36946 ft 473 kts 155°
2026-04-28 04:56 16.26732 143.30473 36946 ft 473 kts 155°
2026-04-28 04:57 16.20839 143.33528 36940 ft 473 kts 155°
2026-04-28 04:57 16.14944 143.36582 36940 ft 473 kts 155°
2026-04-28 04:58 16.09084 143.39616 36938 ft 473 kts 155°
2026-04-28 04:58 16.03186 143.42668 36941 ft 473 kts 155°
2026-04-28 04:59 15.97284 143.45719 36937 ft 473 kts 155°
2026-04-28 04:59 15.91380 143.48770 36938 ft 473 kts 155°
2026-04-28 05:00 15.85507 143.51803 36930 ft 473 kts 155°
2026-04-28 05:00 15.79609 143.54847 36934 ft 473 kts 155°
2026-04-28 05:01 15.73693 143.57898 36936 ft 474 kts 155°
2026-04-28 05:01 15.67779 143.60946 36929 ft 474 kts 155°
2026-04-28 05:02 15.61894 143.63977 36929 ft 474 kts 155°
2026-04-28 05:02 15.55979 143.67021 36925 ft 475 kts 155°
2026-04-28 05:03 15.51057 143.69554 36928 ft 475 kts 155°
2026-04-28 05:03 15.45132 143.72600 36926 ft 475 kts 155°
2026-04-28 05:04 15.39208 143.75643 36928 ft 475 kts 155°
2026-04-28 05:04 15.33277 143.78689 36925 ft 476 kts 155°
2026-04-28 05:05 15.27361 143.81725 36676 ft 472 kts 155°
2026-04-28 05:05 15.24406 143.83240 35994 ft 473 kts 154°
2026-04-28 05:05 15.21453 143.84754 35422 ft 474 kts 154°
2026-04-28 05:05 15.18494 143.86271 34848 ft 474 kts 154°
2026-04-28 05:06 15.15578 143.87765 34284 ft 474 kts 153°
2026-04-28 05:06 15.12632 143.89274 33713 ft 473 kts 153°
2026-04-28 05:06 15.09678 143.90787 33086 ft 473 kts 153°
2026-04-28 05:06 15.06732 143.92295 32465 ft 472 kts 153°
2026-04-28 05:07 15.03787 143.93802 31868 ft 469 kts 153°
2026-04-28 05:07 15.00865 143.95299 31275 ft 468 kts 152°
2026-04-28 05:07 14.97953 143.96789 30701 ft 465 kts 152°
2026-04-28 05:07 14.95053 143.98271 30131 ft 463 kts 152°
2026-04-28 05:08 14.92161 143.99741 29490 ft 461 kts 152°
2026-04-28 05:08 14.89286 144.01193 28847 ft 460 kts 152°
2026-04-28 05:08 14.86448 144.02623 28209 ft 458 kts 153°
2026-04-28 05:08 14.83585 144.04066 27605 ft 456 kts 152°
2026-04-28 05:09 14.80730 144.05502 26996 ft 454 kts 152°
2026-04-28 05:09 14.77900 144.06929 26402 ft 451 kts 152°
2026-04-28 05:09 14.75090 144.08346 25817 ft 448 kts 152°
2026-04-28 05:09 14.72284 144.09759 25246 ft 446 kts 153°
2026-04-28 05:10 14.69508 144.11159 24687 ft 443 kts 152°
2026-04-28 05:10 14.66744 144.12551 24137 ft 440 kts 153°
2026-04-28 05:10 14.64002 144.13932 23596 ft 437 kts 152°
2026-04-28 05:10 14.61274 144.15306 22975 ft 434 kts 152°
2026-04-28 05:11 14.58602 144.16652 22351 ft 431 kts 153°
2026-04-28 05:11 14.55908 144.18007 21729 ft 428 kts 153°
2026-04-28 05:11 14.53241 144.19349 21129 ft 425 kts 152°
2026-04-28 05:11 14.50592 144.20683 20532 ft 422 kts 152°
2026-04-28 05:12 14.47964 144.22005 19947 ft 419 kts 152°
2026-04-28 05:12 14.45345 144.23324 19376 ft 417 kts 152°
2026-04-28 05:12 14.42748 144.24631 18806 ft 415 kts 152°
2026-04-28 05:12 14.40156 144.25934 18263 ft 413 kts 152°
2026-04-28 05:13 14.37611 144.27212 17648 ft 410 kts 152°
2026-04-28 05:13 14.35049 144.28497 17023 ft 408 kts 152°
2026-04-28 05:13 14.32502 144.29778 16410 ft 405 kts 152°
2026-04-28 05:13 14.29979 144.31044 15809 ft 402 kts 152°
2026-04-28 05:14 14.27467 144.32306 15256 ft 399 kts 152°
2026-04-28 05:14 14.25008 144.33539 15061 ft 386 kts 152°
2026-04-28 05:14 14.22635 144.34727 14942 ft 372 kts 152°
2026-04-28 05:14 14.20357 144.35870 14900 ft 357 kts 152°
2026-04-28 05:15 14.18185 144.36960 14895 ft 349 kts 152°
2026-04-28 05:15 14.16007 144.38053 14908 ft 348 kts 152°
2026-04-28 05:15 14.13832 144.39146 14909 ft 349 kts 152°
2026-04-28 05:15 14.11645 144.40243 14915 ft 350 kts 152°
2026-04-28 05:16 14.09460 144.41339 14910 ft 351 kts 152°
2026-04-28 05:16 14.07255 144.42443 14903 ft 351 kts 152°
2026-04-28 05:16 14.05015 144.43467 14893 ft 353 kts 160°
2026-04-28 05:17 14.00249 144.44553 14907 ft 353 kts 166°
2026-04-28 05:17 13.97822 144.45019 14712 ft 356 kts 166°
2026-04-28 05:17 13.95384 144.45497 14246 ft 358 kts 166°
2026-04-28 05:17 13.92934 144.45991 13800 ft 357 kts 167°
2026-04-28 05:18 13.90498 144.46489 13293 ft 356 kts 166°
2026-04-28 05:18 13.88072 144.46992 12805 ft 355 kts 166°
2026-04-28 05:18 13.85649 144.47499 12311 ft 354 kts 166°
2026-04-28 05:18 13.83238 144.48007 11827 ft 353 kts 165°
2026-04-28 05:19 13.80826 144.48517 11348 ft 353 kts 165°
2026-04-28 05:19 13.78455 144.49018 10883 ft 352 kts 165°
2026-04-28 05:19 13.76058 144.49525 10418 ft 351 kts 165°
2026-04-28 05:19 13.73673 144.50030 10066 ft 347 kts 165°
2026-04-28 05:20 13.71360 144.50517 10080 ft 331 kts 165°
2026-04-28 05:20 13.69151 144.50982 10065 ft 317 kts 164°
2026-04-28 05:20 13.67074 144.51419 9933 ft 302 kts 164°
2026-04-28 05:20 13.65017 144.51854 9684 ft 293 kts 164°
2026-04-28 05:21 13.63044 144.52271 9433 ft 285 kts 163°
2026-04-28 05:21 13.61153 144.52672 9082 ft 278 kts 163°
2026-04-28 05:21 13.59272 144.53071 8609 ft 272 kts 163°
2026-04-28 05:21 13.57442 144.53459 8130 ft 266 kts 163°
2026-04-28 05:22 13.55642 144.53841 7641 ft 261 kts 163°
2026-04-28 05:22 13.53878 144.54215 7167 ft 257 kts 163°
2026-04-28 05:22 13.52134 144.54584 6603 ft 256 kts 163°
2026-04-28 05:22 13.50372 144.54959 5884 ft 261 kts 163°
2026-04-28 05:23 13.48603 144.55334 5170 ft 263 kts 164°
2026-04-28 05:23 13.46825 144.55717 4570 ft 259 kts 161°
2026-04-28 05:23 13.45171 144.56358 3958 ft 252 kts 151°
2026-04-28 05:23 13.43594 144.57137 3380 ft 248 kts 150°
2026-04-28 05:24 13.42085 144.57890 3130 ft 231 kts 147°
2026-04-28 05:24 13.40971 144.58884 3003 ft 205 kts 120°
2026-04-28 05:24 13.40448 144.60159 2969 ft 184 kts 99°
2026-04-28 05:24 13.40394 144.61406 2959 ft 171 kts 76°
2026-04-28 05:25 13.40807 144.62555 2987 ft 173 kts 70°
2026-04-28 05:25 13.41247 144.63717 2984 ft 174 kts 69°
2026-04-28 05:25 13.41717 144.64836 2974 ft 166 kts 68°
2026-04-28 05:25 13.42191 144.65907 2849 ft 165 kts 68°
2026-04-28 05:26 13.42657 144.66939 2665 ft 155 kts 68°
2026-04-28 05:26 13.43107 144.67926 2461 ft 150 kts 70°
2026-04-28 05:26 13.43540 144.68879 2270 ft 147 kts 67°
2026-04-28 05:26 13.43976 144.69827 2087 ft 148 kts 67°
2026-04-28 05:27 13.44414 144.70785 1895 ft 151 kts 68°
2026-04-28 05:27 13.44863 144.71772 1723 ft 151 kts 66°
2026-04-28 05:27 13.45304 144.72738 1480 ft 143 kts 66°
2026-04-28 05:27 13.45721 144.73642 1244 ft 143 kts 67°
2026-04-28 05:28 13.46153 144.74608 1017 ft 156 kts 67°
2026-04-28 05:28 13.46620 144.75637 939 ft 159 kts 67°
2026-04-28 05:28 13.47059 144.76635 735 ft 152 kts 65°
2026-04-28 05:28 13.47517 144.77573 450 ft 142 kts 63°
2026-04-28 05:29 13.47933 144.78487 263 ft 137 kts 65°
2026-04-28 05:29 13.48301 144.79295 259 ft 111 kts 65°
2026-04-28 05:29 13.48566 144.79876 270 ft 69 kts 64°
2026-04-28 05:29 13.48709 144.80180 283 ft 26 kts 58°
2026-04-28 05:30 13.48789 144.80266 285 ft 15 kts 41°
2026-04-28 05:30 13.48872 144.80329 286 ft 14 kts 36°
2026-04-28 05:30 13.48951 144.80387 285 ft 14 kts 35°
2026-04-28 05:30 13.49020 144.80454 287 ft 13 kts 53°
2026-04-28 05:31 13.49063 144.80536 290 ft 13 kts 63°
2026-04-28 05:31 13.49105 144.80615 295 ft 12 kts 61°
2026-04-28 05:31 13.49145 144.80694 291 ft 12 kts 64°
2026-04-28 05:31 13.49184 144.80765 296 ft 12 kts 62°
2026-04-28 05:32 13.49224 144.80840 299 ft 12 kts 62°
2026-04-28 05:32 13.49260 144.80911 300 ft 11 kts 63°
2026-04-28 05:32 13.49297 144.80981 302 ft 11 kts 61°
2026-04-28 05:32 13.49342 144.81041 306 ft 11 kts 28°
2026-04-28 05:33 13.49414 144.81029 303 ft 11 kts 336°
2026-04-28 05:33 13.49488 144.80986 302 ft 14 kts 330°
2026-04-28 05:33 13.49494 144.80928 302 ft 10 kts 225°
2026-04-28 05:33 13.49456 144.80904 300 ft 4 kts 208°
2026-04-28 05:34 13.49452 144.80902 299 ft 0 kts 208°